[[{"header":{"parameterUnit":"m.s-1","parameterCategory":1,"la1":30.2991,"la2":30.254,"lo1":-89.0895,"lo2":-89.0444,"dy":0.0017,"dx":0.0017,"nx":28,"ny":28,"refTime":"2024-06-27T03:00:00:Z","depth":0,"parameterNumber":2,"parameterNumberName":"U-component_of_WINDS"},"data":[0,0,0,0,0,0,0,0,0,0,0,0,0,0,0,0,0,0,0,0,0,0,0,0,0,0,0,0,0,0,0,0,0,0,0,0,0,0,0,0,0,0,0,0,0,0,0,0,0,0,0,0,0,0,0,0,0,0,3.1215,3.1215,0,3.1215,3.1215,3.1215,3.1184,3.1183,3.1182,3.1181,3.1182,3.1183,3.1184,0,0,0,0,0,0,0,0,0,0,0,0,0,3.1186,3.1187,3.1215,3.1215,3.1215,3.1215,3.1215,3.1215,3.1184,3.1183,3.1182,3.1181,3.1182,3.1183,3.1184,0,0,0,0,0,0,0,0,0,0,0,0,0,3.1194,3.1187,3.1215,3.1199,3.1198,3.1215,3.1215,3.1215,3.1184,3.1183,3.1182,3.118,3.1181,3.1183,3.1184,3.1216,0,0,3.1187,3.1188,0,0,0,0,0,0,0,0,3.1194,3.1195,3.1202,3.12,3.1199,3.1198,3.1206,3.1216,3.1184,3.1189,3.1181,3.118,3.1188,3.1189,3.1192,3.1216,3.1216,3.1188,3.1188,3.1189,3.1189,0,0,0,0,0,0,0,3.1193,3.1195,3.1215,3.1202,3.12,3.1192,3.1192,3.1207,3.1196,3.1189,3.1186,3.1187,3.1187,3.1191,3.1192,3.1216,3.1187,3.1189,3.1189,3.119,3.1266,3.1268,0,0,0,0,0,0,3.1195,3.1195,3.1215,3.1215,3.1193,3.1194,3.1193,3.12,3.1196,3.1194,3.1188,3.1185,3.1189,3.119,3.1191,3.1228,3.1189,3.119,3.1191,3.1265,3.1267,3.1268,0,0,0,0,0,0,3.1194,3.1197,3.1215,3.1204,3.1206,3.1195,3.1203,3.12,3.1203,3.1195,3.1193,3.1193,3.1188,3.119,3.121,3.1227,3.119,3.1191,3.1263,3.1266,3.1267,3.1302,0,0,0,0,0,0,3.1194,3.1197,3.1209,3.1205,3.1207,3.1234,3.1204,3.1201,3.1206,3.1202,3.12,3.1198,3.1187,3.1208,3.1211,3.1228,3.1192,3.1262,3.1264,3.1267,3.1299,3.1305,3.131,0,0,0,0,0,3.1193,3.1219,3.121,3.1213,3.1222,3.1235,3.1236,3.1223,3.1207,3.1219,3.1214,3.1198,3.1226,3.1211,3.1214,3.1232,3.1261,3.1264,3.1267,3.1297,3.1304,3.131,0,0,0,0,0,0,3.1226,3.1218,3.1208,3.1234,3.1235,3.1229,3.1244,3.1231,3.1237,3.1233,3.1218,3.1217,3.124,3.1238,3.1222,3.1262,3.124,3.1244,3.1262,3.1269,3.1274,3.1273,3.1193,0,0,0,0,0,3.1237,3.1248,3.124,3.1264,3.1265,3.1255,3.126,3.125,3.1251,3.1251,3.1247,3.1248,3.1257,3.1263,3.1271,3.1299,3.1298,3.1313,3.1318,3.1323,3.1326,3.1339,3.1345,3.1278,3.1278,3.1278,0,0,3.1258,3.1255,3.1263,3.1271,3.127,3.1282,3.1255,3.1269,3.1277,3.1253,3.1271,3.1269,3.1269,3.1293,3.1304,3.1292,3.1344,3.1327,3.133,3.133,3.1343,3.1349,3.1355,3.128,3.1279,3.1279,0,0,3.1302,3.1302,3.1321,3.1321,3.1321,3.1314,3.1319,3.1315,3.1312,3.133,3.1312,3.1322,3.1338,3.1338,3.1341,3.1386,3.1371,3.1389,3.1416,3.1429,3.1435,3.1439,3.1454,3.1459,3.1392,3.1392,3.1392,0,3.1329,3.1345,3.1332,3.1347,3.135,3.1329,3.1348,3.1349,3.1351,3.1354,3.1342,3.136,3.1359,3.1383,3.1393,3.1397,3.1401,3.1388,3.1435,3.1439,3.1443,3.1457,3.1463,3.1394,3.1394,3.1394,3.1394,0,3.1377,3.1389,3.1404,3.1407,3.1412,3.1429,3.1418,3.1425,3.1415,3.1409,3.1427,3.1426,3.1432,3.1437,3.1428,3.1459,3.1452,3.1438,3.1415,3.1452,3.1464,3.147,3.1397,3.1397,3.1396,3.1395,0,0,3.1441,3.1437,3.1442,3.1442,3.1441,3.145,3.1466,3.1472,3.1477,3.148,3.1492,3.1506,3.1492,3.1495,3.1486,3.1498,3.1532,3.1482,3.1482,3.149,3.1564,3.1574,3.158,3.1523,3.1524,3.1525,3.1564,0,3.1483,3.1509,3.1497,3.1524,3.1534,3.1514,3.1528,3.1528,3.1524,3.1531,3.1526,3.1536,3.1518,3.1519,3.1531,3.1525,3.1546,3.1523,3.1533,3.1533,3.1531,3.1587,3.1597,3.1633,3.1569,3.157,3.157,0,3.1535,3.1539,3.1566,3.1562,3.1566,3.1578,3.1582,3.1591,3.1591,3.1586,3.159,3.1577,3.1592,3.1571,3.159,3.1575,3.1578,3.1577,3.1578,3.1576,3.1552,3.1585,3.1645,3.165,3.1578,3.1577,3.1577,0,3.1576,3.1589,3.1607,3.1608,3.1604,3.1613,3.1612,3.1611,3.1615,3.1619,3.1621,3.1628,3.1631,3.1635,3.1625,3.1611,3.1646,3.1624,3.1641,3.1642,3.1648,3.1647,3.1707,3.1654,3.1654,3.1654,3.1654,0,3.1622,3.164,3.1625,3.1636,3.1654,3.1642,3.166,3.1657,3.1656,3.1666,3.1651,3.166,3.1647,3.1655,3.1647,3.1663,3.1665,3.1662,3.1659,3.1662,3.1662,3.1663,3.1659,3.1655,3.1655,3.1654,3.1654,0,3.1671,3.1663,3.168,3.1675,3.1674,3.1688,3.1684,3.1693,3.1688,3.17,3.1702,3.1693,3.1702,3.1693,3.1701,3.1696,3.1717,3.1712,3.1717,3.1715,3.1732,3.173,3.1793,3.18,3.1744,3.1744,3.1745,0,3.17,3.1713,3.1709,3.1714,3.1714,3.1723,3.1727,3.1715,3.172,3.1721,3.173,3.1737,3.1742,3.1757,3.1751,3.1757,3.1751,3.1773,3.1751,3.1754,3.1749,3.1747,3.1748,3.1776,3.1777,3.1777,3.1778,0,3.1752,3.1747,3.1753,3.1758,3.1763,3.1767,3.1769,3.1774,3.1761,3.1768,3.1776,3.178,3.1788,3.1795,3.18,3.1798,3.1786,3.1785,3.1789,3.1791,3.1792,3.179,3.1727,3.1783,3.1782,3.1782,3.1782,3.1781,3.1791,3.18,3.1799,3.1806,3.1807,3.1809,3.1817,3.1813,3.1819,3.1824,3.1818,3.1828,3.1827,3.1832,3.1832,3.184,3.183,3.1837,3.1838,3.1839,3.1841,3.1793,3.1841,3.1841,3.1841,3.184,3.184,0,3.184,3.1838,3.1845,3.1848,3.1854,3.1842,3.1844,3.1849,3.1858,3.1859,3.1864,3.1873,3.188,3.1875,3.1881,3.1888,3.1882,3.189,3.1888,3.1888,3.185,3.1845,3.1894,3.1894,3.1894,3.1894,3.1894,3.1894,3.1866,3.1881,3.1876,3.1892,3.189,3.1899,3.1901,3.1903,3.1903,3.1914,3.192,3.1916,3.1915,3.192,3.1926,3.1924,3.1926,3.1935,3.1932,3.1896,3.1891,3.1885,3.188,3.1936,3.1937,3.1968,3.1969,3.1969]},{"header":{"parameterUnit":"m.s-1","parameterCategory":1,"la1":30.2991,"la2":30.254,"lo1":-89.0895,"lo2":-89.0444,"dy":0.0017,"dx":0.0017,"nx":28,"ny":28,"refTime":"2024-06-27T03:00:00:Z","depth":0,"parameterNumber":3,"parameterNumberName":"V-component_of_WINDS"},"data":[0,0,0,0,0,0,0,0,0,0,0,0,0,0,0,0,0,0,0,0,0,0,0,0,0,0,0,0,0,0,0,0,0,0,0,0,0,0,0,0,0,0,0,0,0,0,0,0,0,0,0,0,0,0,0,0,0,0,4.2441,4.2441,0,4.2486,4.2487,4.2487,4.2473,4.2472,4.2471,4.2471,4.2511,4.2513,4.2514,0,0,0,0,0,0,0,0,0,0,0,0,0,4.2337,4.2339,4.2441,4.2441,4.2442,4.2486,4.2487,4.2487,4.2473,4.2472,4.2471,4.247,4.251,4.2512,4.2515,0,0,0,0,0,0,0,0,0,0,0,0,0,4.2382,4.2339,4.2441,4.2441,4.2441,4.2486,4.2487,4.2488,4.2474,4.2472,4.2471,4.247,4.2509,4.2512,4.2515,4.2561,0,0,4.2524,4.2525,0,0,0,0,0,0,0,0,4.2379,4.2386,4.244,4.2441,4.2441,4.2473,4.2465,4.2512,4.2474,4.2461,4.247,4.2469,4.2499,4.2502,4.2514,4.2563,4.2565,4.2524,4.2526,4.2527,4.2528,0,0,0,0,0,0,0,4.2376,4.2383,4.2459,4.2441,4.2442,4.2436,4.2441,4.2474,4.2487,4.2462,4.2461,4.2467,4.2499,4.2511,4.2515,4.2565,4.2524,4.2527,4.2528,4.253,4.2655,4.2656,0,0,0,0,0,0,4.2373,4.2381,4.2457,4.246,4.2406,4.2439,4.2445,4.2464,4.2487,4.2489,4.2468,4.2466,4.2507,4.2511,4.2516,4.2571,4.2527,4.253,4.2532,4.2653,4.2655,4.2657,0,0,0,0,0,0,4.2371,4.238,4.2455,4.242,4.243,4.2443,4.2464,4.2466,4.2478,4.2492,4.2493,4.2479,4.2506,4.2512,4.255,4.2572,4.2531,4.2534,4.2651,4.2654,4.2656,4.2682,0,0,0,0,0,0,4.2368,4.238,4.2398,4.2421,4.2432,4.2491,4.2466,4.2468,4.2484,4.2482,4.2502,4.2504,4.2505,4.2546,4.2553,4.2576,4.2536,4.2649,4.2652,4.2655,4.268,4.2685,4.269,0,0,0,0,0,4.2365,4.2403,4.2399,4.2409,4.2456,4.2492,4.2498,4.2501,4.2486,4.2504,4.2513,4.2503,4.257,4.255,4.2558,4.2582,4.2648,4.2651,4.2655,4.2677,4.2684,4.269,0,0,0,0,0,0,4.2379,4.2405,4.2402,4.2449,4.2469,4.249,4.2512,4.2508,4.253,4.2527,4.2528,4.2533,4.2572,4.2581,4.2559,4.2628,4.2606,4.2611,4.262,4.2627,4.2633,4.2629,4.2539,0,0,0,0,0,4.2389,4.2418,4.2438,4.2477,4.2488,4.2499,4.2515,4.2516,4.2535,4.2542,4.2554,4.2572,4.2596,4.2613,4.2636,4.2682,4.2685,4.2702,4.2707,4.2711,4.2715,4.274,4.2747,4.2668,4.2668,4.2668,0,0,4.2406,4.2425,4.2442,4.2481,4.2496,4.2525,4.2505,4.2536,4.2557,4.2546,4.2584,4.2593,4.2613,4.2655,4.2674,4.2664,4.2738,4.2716,4.2719,4.2721,4.2744,4.2751,4.2758,4.2671,4.267,4.267,0,0,4.2454,4.2471,4.2506,4.2523,4.2547,4.2555,4.2563,4.2586,4.2592,4.263,4.2623,4.2647,4.269,4.2704,4.2717,4.2773,4.2764,4.2781,4.2808,4.2831,4.2838,4.2843,4.2862,4.2869,4.2785,4.2785,4.2785,0,4.2472,4.2518,4.2524,4.2556,4.2573,4.2568,4.2602,4.2617,4.2647,4.2658,4.2647,4.2701,4.2714,4.2759,4.2773,4.2784,4.2793,4.2777,4.2837,4.2842,4.2847,4.2865,4.2872,4.2787,4.2786,4.2786,4.2786,0,4.2539,4.257,4.2595,4.2627,4.2647,4.268,4.269,4.2709,4.2709,4.2717,4.2755,4.2771,4.2798,4.2809,4.2808,4.2855,4.2847,4.2837,4.2814,4.2856,4.2873,4.288,4.2789,4.2788,4.2788,4.2787,0,0,4.2594,4.2632,4.264,4.2655,4.2683,4.2706,4.2739,4.2768,4.2784,4.2805,4.2832,4.2869,4.286,4.2875,4.2876,4.2897,4.2939,4.2883,4.2883,4.2892,4.299,4.2997,4.3005,4.2935,4.2936,4.2937,4.2988,0,4.2643,4.2703,4.271,4.2763,4.2791,4.2788,4.2816,4.2836,4.2845,4.2869,4.2878,4.2904,4.289,4.2899,4.292,4.2929,4.2958,4.2926,4.2957,4.2958,4.2951,4.3014,4.3021,4.3068,4.2995,4.2996,4.2997,0,4.2707,4.2734,4.279,4.2815,4.2827,4.2853,4.288,4.2904,4.2926,4.2931,4.2949,4.2948,4.298,4.2958,4.3002,4.298,4.2993,4.3,4.3002,4.3003,4.2978,4.3015,4.3083,4.309,4.3007,4.3006,4.3006,0,4.274,4.279,4.283,4.2843,4.2874,4.2892,4.2905,4.2926,4.2943,4.2967,4.2977,4.3004,4.3017,4.3037,4.3042,4.3027,4.3086,4.3065,4.3089,4.3089,4.31,4.3098,4.3169,4.3111,4.3111,4.3111,4.3111,0,4.2793,4.2827,4.2846,4.287,4.2908,4.2916,4.2953,4.2965,4.2984,4.3009,4.3008,4.3031,4.3038,4.3062,4.3066,4.3101,4.3107,4.3111,4.3111,4.311,4.311,4.3118,4.3114,4.3113,4.3112,4.3112,4.3112,0,4.2835,4.2849,4.2893,4.292,4.2928,4.2954,4.2976,4.2999,4.3009,4.3041,4.3049,4.3063,4.3092,4.31,4.3134,4.3137,4.3178,4.3176,4.3171,4.317,4.3194,4.3191,4.327,4.3281,4.3217,4.3218,4.3218,0,4.2867,4.2894,4.2925,4.2943,4.2958,4.2987,4.3006,4.3015,4.3034,4.3062,4.3081,4.3111,4.3134,4.318,4.3192,4.3218,4.3215,4.3242,4.3219,4.3217,4.3214,4.3212,4.3214,4.3245,4.3246,4.3246,4.3247,0,4.2921,4.2928,4.2956,4.2988,4.3011,4.3035,4.3058,4.3072,4.3085,4.3106,4.3137,4.3156,4.3192,4.322,4.3246,4.3258,4.3254,4.3254,4.3261,4.3259,4.3255,4.3256,4.3181,4.3252,4.3251,4.3251,4.325,4.325,4.2958,4.2982,4.3009,4.304,4.306,4.3082,4.3105,4.3119,4.3146,4.3178,4.3182,4.3215,4.3236,4.3272,4.3285,4.331,4.3302,4.3311,4.3314,4.3316,4.3317,4.3253,4.3315,4.3314,4.3314,4.3314,4.3314,0,4.3012,4.303,4.3059,4.3093,4.3118,4.3116,4.3142,4.3162,4.3192,4.3214,4.3238,4.3274,4.3302,4.3317,4.3345,4.3362,4.336,4.3368,4.3366,4.3369,4.3323,4.3314,4.3369,4.3369,4.3369,4.3369,4.3369,4.3369,4.3042,4.3083,4.3093,4.3142,4.3159,4.3194,4.3209,4.3229,4.3247,4.3287,4.3312,4.3323,4.3342,4.3371,4.3396,4.34,4.3409,4.3418,4.3421,4.3377,4.3372,4.3366,4.3358,4.3421,4.3421,4.3464,4.3464,4.3465]}]]